Hourly Weather Roundup
Issued by NWS Central Illinois

Home | Current Version | Previous Version | Text Only | Print | Product List | Glossary On
Versions: 1 2 3 4 5 6 7 8 9 10 11 12 13 14 15 16 17 18 19 20 21 22 23 24 25 26 27 28 29 30 31 32 33 34 35 36 37 38 39 40 41 42 43 44 45 46 47 48 49 50
000
NZUS43 KILX 211410
HWRILX

AREA WEATHER ROUNDUP
NATIONAL WEATHER SERVICE, LINCOLN IL
900 AM CDT TUE OCT 21 2014


CITY           SKY/WX    TMP DP  RH WIND       PRES   REMARKS
BLOOMINGTON    SUNNY     48  44  86 N10       30.15R
CHAMPAIGN      SUNNY     51  45  79 N9        30.12R
DECATUR        SUNNY     50  45  83 N9        30.14R
FLORA          SUNNY     50  47  90 N5        30.11R
GALESBURG      SUNNY     45  42  89 CALM      30.17R
JACKSONVILLE   SUNNY     51  45  79 NE8       30.15R
LACON          SUNNY     46  41  85 N3        30.16R
LAWRENCEVILLE  CLOUDY    50  48  93 NW3       30.11R FOG
LITCHFIELD     SUNNY     48  44  85 CALM      30.12R
$$


CITY           SKY/WX    TMP DP  RH WIND       PRES   REMARKS
LINCOLN        SUNNY     49  44  82 N6        30.14R
MACOMB         SUNNY     47  44  87 NE6       30.18S
MATTOON        MOSUNNY   48  46  93 N7        30.11R
MT CARMEL AP   SUNNY     55  52  88 CALM      30.10R
OLNEY-NOBLE AP SUNNY     52  46  82 CALM      30.11R
PARIS          PTSUNNY   50  48  93 N5        30.11R
PEORIA         SUNNY     49  41  74 N5        30.16R
PONTIAC        NOT AVBL
RANTOUL        SUNNY     52  44  73 N10       30.13R
ROBINSON       CLOUDY    50  49  97 CALM      30.11R
SPRINGFIELD    SUNNY     50  43  77 N6        30.15R
TAYLORVILLE    SUNNY     46  45  93 N7        30.13R
$$

...REGIONAL REPORTS...


CITY           SKY/WX    TMP DP  RH WIND       PRES   REMARKS
CHICAGO O`HARE PTSUNNY   47  39  74 N13       30.14R
KANKAKEE       MOSUNNY   51  41  70 N13       30.13R
MOLINE         SUNNY     47  42  83 CALM      30.18R
MOUNT VERNON   SUNNY     50  45  81 NE3       30.10R
PITTSFIELD     SUNNY     51  44  78 NE3       30.16R
QUINCY         SUNNY     49  43  80 NE9       30.15R
ROCKFORD       MOSUNNY   48  37  65 N15       30.19R
$$


CITY           SKY/WX    TMP DP  RH WIND       PRES   REMARKS
BURLINGTON     SUNNY     49  44  83 NE5       30.16R
CEDAR RAPIDS   SUNNY     46  41  82 NE5       30.18R
DES MOINES     SUNNY     48  41  76 E5        30.15R
KIRKSVILLE     SUNNY     50  45  83 NE6       30.15R
OTTUMWA        SUNNY     45  41  86 E9        30.16R
ST LOUIS       SUNNY     55  46  71 N3        30.12R
$$


CITY           SKY/WX    TMP DP  RH WIND       PRES   REMARKS
TERRE HAUTE    CLOUDY    52  47  83 N6        30.10R
EVANSVILLE     SUNNY     54  47  77 NE7       30.09R
INDIANAPOLIS   PTSUNNY   50  45  83 NW9       30.08R
LAFAYETTE      LGT RAIN  48  46  93 N6        30.10R
MADISON        PTSUNNY   43  37  79 N6        30.21R
MILWAUKEE      PTSUNNY   47  39  74 N10       30.16R
$$




USA.gov is the U.S. government's official web portal to all federal, state and local government web resources and services.